• In Kazakhstan
  • List of Countries
  • For 7 days
  • Water Temperature
  • Weather Map
  • News
  • Weather Widgets
  • user-avatar
    Login

    Hourly Weather Potosi

    Today, 24 February, Monday

    Time Temperature Precipitation Wind Pressure Humidity
    00:00 +9°C° 0.3 mm 2 mps 467 mmHg 83%
    01:00 +9°C° 0.3 mm 2 mps 467 mmHg 83%
    02:00 +8°C° 0.3 mm 2 mps 467 mmHg 83%
    03:00 +8°C° 0.1 mm 2 mps 466 mmHg 84%
    04:00 +9°C° 0.1 mm 1 mps 466 mmHg 86%
    05:00 +8°C° 0.1 mm 0 mps 466 mmHg 87%
    06:00 +8°C° 0 mm 0 mps 466 mmHg 84%
    07:00 +10°C° 0 mm 1 mps 467 mmHg 80%
    08:00 +10°C° 0 mm 1 mps 468 mmHg 76%
    09:00 +12°C° 0.3 mm 1 mps 468 mmHg 70%
    10:00 +13°C° 0.3 mm 1 mps 469 mmHg 63%
    11:00 +14°C° 0.3 mm 1 mps 469 mmHg 56%
    12:00 +15°C° 1 mm 1 mps 469 mmHg 55%
    13:00 +15°C° 1 mm 2 mps 469 mmHg 53%
    14:00 +16°C° 1 mm 2 mps 468 mmHg 52%
    15:00 +15°C° 1.3 mm 2 mps 467 mmHg 55%
    16:00 +14°C° 1.3 mm 2 mps 466 mmHg 58%
    17:00 +13°C° 1.3 mm 2 mps 465 mmHg 61%
    18:00 +12°C° 0.7 mm 2 mps 465 mmHg 64%
    19:00 +10°C° 0.7 mm 2 mps 465 mmHg 67%
    20:00 +10°C° 0.7 mm 2 mps 465 mmHg 69%
    21:00 +11°C° 0.1 mm 1 mps 466 mmHg 69%
    22:00 +11°C° 0.1 mm 1 mps 466 mmHg 69%
    23:00 +11°C° 0.1 mm 1 mps 467 mmHg 69%

    Tomorrow, 25 February, Tuesday

    Time Temperature Precipitation Wind Pressure Humidity
    00:00 +11°C° 0.1 mm 1 mps 466 mmHg 71%
    01:00 +9°C° 0.1 mm 0 mps 466 mmHg 73%
    02:00 +9°C° 0.1 mm 0 mps 466 mmHg 75%
    03:00 +10°C° 0.2 mm 1 mps 466 mmHg 75%
    04:00 +10°C° 0.2 mm 1 mps 465 mmHg 76%
    05:00 +9°C° 0.2 mm 1 mps 465 mmHg 77%
    06:00 +10°C° 0 mm 1 mps 466 mmHg 72%
    07:00 +11°C° 0 mm 1 mps 467 mmHg 67%
    08:00 +12°C° 0 mm 1 mps 468 mmHg 63%
    09:00 +13°C° 0.7 mm 1 mps 468 mmHg 58%
    10:00 +14°C° 0.7 mm 1 mps 469 mmHg 54%
    11:00 +15°C° 0.7 mm 1 mps 470 mmHg 50%
    12:00 +15°C° 1.1 mm 2 mps 469 mmHg 50%
    13:00 +15°C° 1.1 mm 2 mps 469 mmHg 51%
    14:00 +14°C° 1.1 mm 3 mps 468 mmHg 52%
    15:00 +12°C° 3.5 mm 3 mps 466 mmHg 63%
    16:00 +10°C° 3.5 mm 4 mps 464 mmHg 75%
    17:00 +6°C° 3.5 mm 4 mps 462 mmHg 87%
    18:00 +7°C° 2.1 mm 3 mps 463 mmHg 85%
    19:00 +7°C° 2.1 mm 3 mps 464 mmHg 83%
    20:00 +8°C° 2.1 mm 2 mps 465 mmHg 82%
    21:00 +8°C° 0.4 mm 2 mps 466 mmHg 81%
    22:00 +8°C° 0.4 mm 2 mps 466 mmHg 81%
    23:00 +9°C° 0.4 mm 1 mps 467 mmHg 81%

    Day after tomorrow, 26 February, Wednesday

    Time Temperature Precipitation Wind Pressure Humidity
    00:00 +9°C° 0 mm 1 mps 467 mmHg 84%
    01:00 +8°C° 0 mm 1 mps 466 mmHg 87%
    02:00 +8°C° 0 mm 1 mps 466 mmHg 90%
    03:00 +8°C° 0 mm 1 mps 466 mmHg 91%
    04:00 +7°C° 0 mm 1 mps 466 mmHg 91%
    05:00 +7°C° 0 mm 1 mps 466 mmHg 92%
    06:00 +8°C° 0.1 mm 1 mps 467 mmHg 89%
    07:00 +8°C° 0.1 mm 1 mps 467 mmHg 85%
    08:00 +9°C° 0.1 mm 1 mps 468 mmHg 82%
    09:00 +8°C° 0.5 mm 2 mps 469 mmHg 79%
    10:00 +9°C° 0.5 mm 2 mps 469 mmHg 76%
    11:00 +10°C° 0.5 mm 3 mps 470 mmHg 73%
    12:00 +10°C° 0.5 mm 4 mps 470 mmHg 71%
    13:00 +11°C° 0.5 mm 4 mps 470 mmHg 69%
    14:00 +11°C° 0.5 mm 4 mps 469 mmHg 68%
    15:00 +11°C° 1 mm 4 mps 469 mmHg 71%
    16:00 +10°C° 1 mm 3 mps 468 mmHg 74%
    17:00 +9°C° 1 mm 3 mps 467 mmHg 77%
    18:00 +9°C° 0.8 mm 3 mps 467 mmHg 80%
    19:00 +8°C° 0.8 mm 2 mps 467 mmHg 83%
    20:00 +7°C° 0.8 mm 2 mps 467 mmHg 86%
    21:00 +7°C° 0.1 mm 2 mps 467 mmHg 87%
    22:00 +7°C° 0.1 mm 2 mps 467 mmHg 89%
    23:00 +7°C° 0.1 mm 2 mps 468 mmHg 91%

    27 February, Thursday

    Time Temperature Precipitation Wind Pressure Humidity
    00:00 +7°C° 0.1 mm 2 mps 467 mmHg 90%
    01:00 +7°C° 0.1 mm 2 mps 467 mmHg 90%
    02:00 +6°C° 0.1 mm 2 mps 467 mmHg 90%
    03:00 +6°C° 0 mm 2 mps 467 mmHg 90%
    04:00 +6°C° 0 mm 2 mps 467 mmHg 91%
    05:00 +6°C° 0 mm 2 mps 466 mmHg 91%
    06:00 +7°C° 0 mm 1 mps 467 mmHg 90%
    07:00 +7°C° 0 mm 1 mps 467 mmHg 89%
    08:00 +7°C° 0 mm 1 mps 467 mmHg 87%
    09:00 +9°C° 0 mm 1 mps 468 mmHg 82%
    10:00 +10°C° 0 mm 1 mps 468 mmHg 76%
    11:00 +10°C° 0 mm 2 mps 469 mmHg 70%
    12:00 +12°C° 0.6 mm 2 mps 469 mmHg 68%
    13:00 +13°C° 0.6 mm 2 mps 469 mmHg 66%
    14:00 +13°C° 0.6 mm 2 mps 469 mmHg 65%
    15:00 +13°C° 0.9 mm 2 mps 468 mmHg 66%
    16:00 +12°C° 0.9 mm 3 mps 467 mmHg 68%
    17:00 +11°C° 0.9 mm 3 mps 467 mmHg 70%
    18:00 +10°C° 0.4 mm 3 mps 467 mmHg 74%
    19:00 +10°C° 0.4 mm 3 mps 467 mmHg 78%
    20:00 +9°C° 0.4 mm 3 mps 467 mmHg 83%
    21:00 +9°C° 0 mm 3 mps 467 mmHg 85%
    22:00 +8°C° 0 mm 3 mps 467 mmHg 87%
    23:00 +8°C° 0 mm 2 mps 467 mmHg 89%

    28 February, Friday

    Time Temperature Precipitation Wind Pressure Humidity
    00:00 +8°C° 0.1 mm 2 mps 467 mmHg 88%
    01:00 +8°C° 0.1 mm 2 mps 467 mmHg 87%
    02:00 +8°C° 0.1 mm 2 mps 467 mmHg 86%
    03:00 +8°C° 0.1 mm 2 mps 467 mmHg 87%
    04:00 +7°C° 0.1 mm 2 mps 467 mmHg 89%
    05:00 +7°C° 0.1 mm 2 mps 466 mmHg 90%
    06:00 +8°C° 0 mm 1 mps 467 mmHg 87%
    07:00 +8°C° 0 mm 1 mps 467 mmHg 84%
    08:00 +9°C° 0 mm 1 mps 468 mmHg 81%
    09:00 +10°C° 0 mm 1 mps 469 mmHg 72%
    10:00 +12°C° 0 mm 1 mps 469 mmHg 63%
    11:00 +14°C° 0 mm 2 mps 470 mmHg 53%
    12:00 +15°C° 0.2 mm 2 mps 470 mmHg 50%
    13:00 +15°C° 0.2 mm 2 mps 470 mmHg 47%
    14:00 +16°C° 0.2 mm 3 mps 470 mmHg 44%
    15:00 +16°C° 0.6 mm 3 mps 470 mmHg 47%
    16:00 +14°C° 0.6 mm 3 mps 469 mmHg 51%
    17:00 +14°C° 0.6 mm 4 mps 468 mmHg 54%
    18:00 +13°C° 0.3 mm 3 mps 468 mmHg 62%
    19:00 +11°C° 0.3 mm 3 mps 467 mmHg 69%
    20:00 +10°C° 0.3 mm 3 mps 467 mmHg 76%
    21:00 +9°C° 0 mm 3 mps 467 mmHg 80%
    22:00 +9°C° 0 mm 3 mps 467 mmHg 84%
    23:00 +8°C° 0 mm 2 mps 468 mmHg 88%

    29 February, Saturday

    Time Temperature Precipitation Wind Pressure Humidity
    00:00 +8°C° 0.1 mm 2 mps 467 mmHg 87%
    01:00 +8°C° 0.1 mm 2 mps 467 mmHg 87%
    02:00 +8°C° 0.1 mm 2 mps 467 mmHg 86%
    03:00 +8°C° 0.1 mm 2 mps 467 mmHg 86%
    04:00 +7°C° 0.1 mm 2 mps 467 mmHg 87%
    05:00 +8°C° 0.1 mm 1 mps 467 mmHg 87%
    06:00 +8°C° 0 mm 1 mps 468 mmHg 85%
    07:00 +8°C° 0 mm 1 mps 468 mmHg 84%
    08:00 +9°C° 0 mm 1 mps 469 mmHg 82%
    09:00 +9°C° 0.1 mm 2 mps 469 mmHg 77%
    10:00 +10°C° 0.1 mm 2 mps 470 mmHg 71%
    11:00 +12°C° 0.1 mm 2 mps 470 mmHg 66%
    12:00 +12°C° 0.3 mm 3 mps 471 mmHg 62%
    13:00 +12°C° 0.3 mm 3 mps 471 mmHg 58%
    14:00 +13°C° 0.3 mm 4 mps 471 mmHg 55%
    15:00 +12°C° 0.9 mm 4 mps 470 mmHg 60%
    16:00 +11°C° 0.9 mm 4 mps 469 mmHg 66%
    17:00 +11°C° 0.9 mm 4 mps 468 mmHg 71%
    18:00 +10°C° 0.5 mm 3 mps 468 mmHg 75%
    19:00 +9°C° 0.5 mm 3 mps 468 mmHg 80%
    20:00 +8°C° 0.5 mm 3 mps 468 mmHg 84%
    21:00 +8°C° 0.6 mm 3 mps 468 mmHg 85%
    22:00 +7°C° 0.6 mm 2 mps 469 mmHg 86%
    23:00 +7°C° 0.6 mm 2 mps 469 mmHg 87%
    Show more